Regional Weather Roundup
Issued by NWS

Home | Current Version | Previous Version | Graphics & Text | Print | Product List | Glossary On
Versions: 1 2 3 4 5 6 7 8 9 10 11 12 13 14 15 16 17 18 19 20 21 22 23 24 25 26 27
000
ASUS45 KCYS 231410
RWRWY

WYOMING REGIONAL WEATHER ROUNDUP
NATIONAL WEATHER SERVICE CHEYENNE WY
700 AM MST MON JAN 23 2017

NOTE:  "FAIR" INDICATES FEW OR NO CLOUDS BELOW 12,000 FEET
WITH NO SIGNIFICANT WEATHER AND/OR OBSTRUCTIONS TO VISIBILITY.

WYZ001-231500-
YELLOWSTONE NATIONAL PARK

CITY           SKY/WX    TMP DP  RH WIND       PRES   REMARKS
LK YELLOWSTONE   N/A      6   5  95 CALM      29.57F
W YELLOWSTONE  NOT AVBL

$$
WYZ002>013-054>058-071-098>099-231500-
NORTHERN WYOMING

CITY           SKY/WX    TMP DP  RH WIND       PRES   REMARKS
JACKSON        CLOUDY    12  12 100 N7        29.57F WCI   2
CODY           FAIR      13  10  88 S5        29.59R WCI   5
GREYBULL       FAIR      14  10  84 CALM      29.62R
WORLAND        FAIR      18  15  88 S3        29.59S
SHERIDAN       FAIR      18  14  84 S3        29.59S
BUFFALO        FAIR      26  14  60 CALM      29.57S
GILLETTE       FAIR      27  22  81 N5        29.58R WCI  22
HULETT         CLOUDY    21  18  86 CALM      29.60S
NEWCASTLE      LGT SNOW  28  28 100 E6        29.63F WCI  22

$$
WYZ014>020-022>026-101>103-231500-
CENTRAL WYOMING

CITY           SKY/WX    TMP DP  RH WIND       PRES   REMARKS
BIG PINEY      LGT SNOW  17  15  92 CALM      29.59F FOG
PINEDALE       LGT SNOW  14  12  92 CALM      29.59F
DUBOIS         NOT AVBL
LANDER         FAIR      19  12  74 CALM      29.56F
RIVERTON       CLOUDY    15  12  88 CALM      29.58F
CASPER         MOCLDY    19  17  92 CALM      29.60R
DOUGLAS        FAIR      30  22  72 N6        29.60S WCI  24

$$
WYZ021-027>030-104>119-231500-
SOUTHERN WYOMING

CITY           SKY/WX    TMP DP  RH WIND       PRES   REMARKS
EVANSTON       LGT SNOW  22  18  85 E10       29.51F FOG     WCI  11
ROCK SPRINGS   CLOUDY    25  18  74 S5        29.57F WCI  19
RAWLINS        CLOUDY    30  22  72 SW23G30   29.60F WCI  17
LARAMIE        FAIR      23  17  78 SW12      29.60F WCI  12
CHEYENNE       FAIR      23  13  65 CALM      29.59F
TORRINGTON     FAIR      23  18  81 E6        29.63F WCI  16

$$




USA.gov is the U.S. government's official web portal to all federal, state and local government web resources and services.